When you browse on this site, cookies collect data to enhance your experience and personalize the content and advertising you see.
Visit our Privacy Policy to learn more. By continuing to use the site, you agree to this use of cookies and data.
  • In Österreich
  • Länderverzeichnis
  • Für 7 Tage
  • Wassertemperatur
  • Wetterkarte
  • News
  • Widgets
  • user-avatar
    Anmelden

    Stündliche Wetter Kupovcy

    Heute, 14 Oktober, Montag

    Zeit Temperatur Niederschläge Wind Luftdruck Luftfeuchtigkeit
    00:00 +13°C° 0 mm 2 m/S 752 mmHg 86%
    01:00 +13°C° 0 mm 2 m/S 752 mmHg 87%
    02:00 +13°C° 0 mm 2 m/S 752 mmHg 88%
    03:00 +12°C° 0 mm 2 m/S 752 mmHg 89%
    04:00 +12°C° 0 mm 2 m/S 751 mmHg 90%
    05:00 +11°C° 0 mm 3 m/S 751 mmHg 91%
    06:00 +11°C° 0 mm 3 m/S 751 mmHg 89%
    07:00 +12°C° 0 mm 3 m/S 751 mmHg 87%
    08:00 +12°C° 0 mm 4 m/S 751 mmHg 82%
    09:00 +14°C° 0 mm 4 m/S 751 mmHg 75%
    10:00 +17°C° 0 mm 4 m/S 751 mmHg 69%
    11:00 +18°C° 0 mm 4 m/S 751 mmHg 62%
    12:00 +19°C° 0 mm 5 m/S 751 mmHg 59%
    13:00 +20°C° 0 mm 5 m/S 750 mmHg 57%
    14:00 +22°C° 0 mm 5 m/S 750 mmHg 55%
    15:00 +20°C° 0 mm 4 m/S 750 mmHg 60%
    16:00 +19°C° 0 mm 4 m/S 750 mmHg 65%
    17:00 +18°C° 0 mm 4 m/S 750 mmHg 69%
    18:00 +17°C° 0 mm 3 m/S 750 mmHg 73%
    19:00 +16°C° 0 mm 3 m/S 750 mmHg 76%
    20:00 +14°C° 0 mm 3 m/S 750 mmHg 80%
    21:00 +14°C° 0 mm 3 m/S 750 mmHg 82%
    22:00 +14°C° 0 mm 2 m/S 750 mmHg 85%
    23:00 +14°C° 0 mm 2 m/S 750 mmHg 87%

    Morgen, 15 Oktober, Dienstag

    Zeit Temperatur Niederschläge Wind Luftdruck Luftfeuchtigkeit
    00:00 +14°C° 0 mm 2 m/S 751 mmHg 88%
    01:00 +14°C° 0 mm 2 m/S 751 mmHg 89%
    02:00 +13°C° 0 mm 1 m/S 751 mmHg 90%
    03:00 +13°C° 0 mm 1 m/S 751 mmHg 90%
    04:00 +13°C° 0 mm 1 m/S 751 mmHg 91%
    05:00 +12°C° 0 mm 0 m/S 752 mmHg 91%
    06:00 +13°C° 0 mm 1 m/S 752 mmHg 91%
    07:00 +13°C° 0 mm 1 m/S 752 mmHg 90%
    08:00 +14°C° 0 mm 1 m/S 752 mmHg 90%
    09:00 +15°C° 0 mm 1 m/S 752 mmHg 83%
    10:00 +17°C° 0 mm 2 m/S 752 mmHg 77%
    11:00 +19°C° 0 mm 2 m/S 752 mmHg 70%
    12:00 +20°C° 0 mm 2 m/S 752 mmHg 67%
    13:00 +21°C° 0 mm 2 m/S 752 mmHg 65%
    14:00 +21°C° 0 mm 3 m/S 751 mmHg 62%
    15:00 +20°C° 0 mm 3 m/S 751 mmHg 67%
    16:00 +19°C° 0 mm 3 m/S 751 mmHg 72%
    17:00 +18°C° 0 mm 3 m/S 750 mmHg 77%
    18:00 +17°C° 0 mm 3 m/S 751 mmHg 79%
    19:00 +17°C° 0 mm 3 m/S 751 mmHg 80%
    20:00 +15°C° 0 mm 4 m/S 751 mmHg 82%
    21:00 +15°C° 0 mm 4 m/S 751 mmHg 80%
    22:00 +15°C° 0 mm 4 m/S 750 mmHg 79%
    23:00 +14°C° 0 mm 4 m/S 750 mmHg 77%

    übermorgen, 16 Oktober, Mittwoch

    Zeit Temperatur Niederschläge Wind Luftdruck Luftfeuchtigkeit
    00:00 +14°C° 0 mm 4 m/S 750 mmHg 77%
    01:00 +13°C° 0 mm 4 m/S 750 mmHg 76%
    02:00 +13°C° 0 mm 4 m/S 751 mmHg 75%
    03:00 +12°C° 0 mm 4 m/S 750 mmHg 76%
    04:00 +12°C° 0 mm 4 m/S 750 mmHg 77%
    05:00 +12°C° 0 mm 4 m/S 749 mmHg 78%
    06:00 +12°C° 0 mm 4 m/S 749 mmHg 76%
    07:00 +12°C° 0 mm 4 m/S 749 mmHg 75%
    08:00 +12°C° 0 mm 5 m/S 749 mmHg 74%
    09:00 +14°C° 0 mm 5 m/S 749 mmHg 68%
    10:00 +16°C° 0 mm 5 m/S 749 mmHg 62%
    11:00 +17°C° 0 mm 5 m/S 749 mmHg 57%
    12:00 +19°C° 0 mm 5 m/S 749 mmHg 56%
    13:00 +20°C° 0 mm 5 m/S 748 mmHg 54%
    14:00 +21°C° 0 mm 5 m/S 748 mmHg 53%
    15:00 +20°C° 0 mm 4 m/S 748 mmHg 59%
    16:00 +19°C° 0 mm 4 m/S 748 mmHg 64%
    17:00 +18°C° 0 mm 3 m/S 748 mmHg 70%
    18:00 +17°C° 0 mm 3 m/S 748 mmHg 74%
    19:00 +16°C° 0 mm 2 m/S 749 mmHg 78%
    20:00 +15°C° 0 mm 2 m/S 749 mmHg 82%
    21:00 +15°C° 0 mm 2 m/S 749 mmHg 85%
    22:00 +14°C° 0 mm 2 m/S 749 mmHg 88%
    23:00 +14°C° 0 mm 2 m/S 749 mmHg 90%

    17 Oktober, Donnerstag

    Zeit Temperatur Niederschläge Wind Luftdruck Luftfeuchtigkeit
    00:00 +14°C° 0 mm 2 m/S 750 mmHg 89%
    01:00 +14°C° 0 mm 2 m/S 750 mmHg 88%
    02:00 +14°C° 0 mm 2 m/S 750 mmHg 86%
    03:00 +14°C° 0 mm 2 m/S 750 mmHg 85%
    04:00 +14°C° 0 mm 2 m/S 750 mmHg 83%
    05:00 +14°C° 0 mm 2 m/S 750 mmHg 81%
    06:00 +14°C° 0 mm 2 m/S 750 mmHg 80%
    07:00 +13°C° 0 mm 2 m/S 750 mmHg 79%
    08:00 +13°C° 0 mm 2 m/S 750 mmHg 78%
    09:00 +14°C° 0 mm 3 m/S 750 mmHg 71%
    10:00 +15°C° 0 mm 4 m/S 750 mmHg 64%
    11:00 +18°C° 0 mm 4 m/S 750 mmHg 57%
    12:00 +17°C° 0 mm 5 m/S 750 mmHg 54%
    13:00 +17°C° 0 mm 5 m/S 750 mmHg 51%
    14:00 +19°C° 0 mm 5 m/S 750 mmHg 49%
    15:00 +17°C° 0 mm 4 m/S 750 mmHg 55%
    16:00 +15°C° 0 mm 4 m/S 750 mmHg 61%
    17:00 +14°C° 0 mm 3 m/S 750 mmHg 67%
    18:00 +13°C° 0 mm 3 m/S 750 mmHg 70%
    19:00 +13°C° 0 mm 3 m/S 750 mmHg 73%
    20:00 +12°C° 0 mm 3 m/S 751 mmHg 77%
    21:00 +12°C° 0 mm 3 m/S 751 mmHg 80%
    22:00 +12°C° 0 mm 2 m/S 751 mmHg 83%
    23:00 +12°C° 0 mm 2 m/S 751 mmHg 86%

    18 Oktober, Freitag

    Zeit Temperatur Niederschläge Wind Luftdruck Luftfeuchtigkeit
    00:00 +10°C° 0 mm 2 m/S 751 mmHg 88%
    01:00 +10°C° 0 mm 2 m/S 752 mmHg 90%
    02:00 +10°C° 0 mm 2 m/S 752 mmHg 92%
    03:00 +11°C° 0 mm 1 m/S 752 mmHg 93%
    04:00 +11°C° 0 mm 1 m/S 752 mmHg 93%
    05:00 +10°C° 0 mm 1 m/S 752 mmHg 94%
    06:00 +11°C° 0 mm 1 m/S 752 mmHg 93%
    07:00 +11°C° 0 mm 1 m/S 753 mmHg 91%
    08:00 +11°C° 0 mm 1 m/S 753 mmHg 90%
    09:00 +13°C° 0 mm 1 m/S 753 mmHg 83%
    10:00 +14°C° 0 mm 1 m/S 753 mmHg 76%
    11:00 +16°C° 0 mm 1 m/S 753 mmHg 69%
    12:00 +18°C° 0 mm 1 m/S 753 mmHg 67%
    13:00 +18°C° 0 mm 1 m/S 753 mmHg 64%
    14:00 +19°C° 0 mm 1 m/S 753 mmHg 62%
    15:00 +18°C° 0 mm 1 m/S 753 mmHg 67%
    16:00 +15°C° 0 mm 0 m/S 753 mmHg 72%
    17:00 +13°C° 0 mm 0 m/S 753 mmHg 77%
    18:00 +14°C° 0 mm 1 m/S 753 mmHg 79%
    19:00 +13°C° 0 mm 1 m/S 753 mmHg 82%
    20:00 +13°C° 0 mm 1 m/S 753 mmHg 85%
    21:00 +13°C° 0 mm 1 m/S 753 mmHg 86%
    22:00 +12°C° 0 mm 2 m/S 754 mmHg 87%
    23:00 +12°C° 0 mm 2 m/S 754 mmHg 89%

    19 Oktober, Samstag

    Zeit Temperatur Niederschläge Wind Luftdruck Luftfeuchtigkeit
    00:00 +12°C° 0 mm 2 m/S 754 mmHg 89%
    01:00 +12°C° 0 mm 2 m/S 754 mmHg 89%
    02:00 +12°C° 0 mm 2 m/S 754 mmHg 89%
    03:00 +12°C° 0 mm 2 m/S 754 mmHg 90%
    04:00 +10°C° 0 mm 2 m/S 754 mmHg 91%
    05:00 +10°C° 0 mm 2 m/S 754 mmHg 92%
    06:00 +10°C° 0 mm 2 m/S 754 mmHg 91%
    07:00 +10°C° 0 mm 2 m/S 754 mmHg 90%
    08:00 +12°C° 0 mm 2 m/S 754 mmHg 89%
    09:00 +12°C° 0 mm 3 m/S 754 mmHg 83%
    10:00 +14°C° 0 mm 3 m/S 754 mmHg 76%
    11:00 +16°C° 0 mm 3 m/S 754 mmHg 69%
    12:00 +17°C° 0 mm 3 m/S 754 mmHg 66%
    13:00 +18°C° 0 mm 4 m/S 754 mmHg 63%
    14:00 +19°C° 0 mm 4 m/S 754 mmHg 60%
    15:00 +18°C° 0 mm 4 m/S 754 mmHg 65%
    16:00 +17°C° 0 mm 3 m/S 754 mmHg 70%
    17:00 +16°C° 0 mm 3 m/S 753 mmHg 75%
    18:00 +14°C° 0 mm 3 m/S 754 mmHg 76%
    19:00 +14°C° 0 mm 4 m/S 754 mmHg 77%
    20:00 +13°C° 0 mm 4 m/S 754 mmHg 78%
    21:00 +13°C° 0 mm 4 m/S 754 mmHg 78%
    22:00 +12°C° 0 mm 4 m/S 754 mmHg 78%
    23:00 +12°C° 0 mm 4 m/S 754 mmHg 79%
    Mehr zeigen